sat.trackr.live / text

‹ back to catalog

STARLINK-35701

NORAD 67118 · 2025-299S

PAYLOAD ACTIVE UNKNOWN

§ Identity

Operator
Country
US
Launch date
2025-12-15
Launch site
AFETR
Launch vehicle
Mass (kg)
RCS (m²)

Purposes: comms

External: N2YO · Heavens-Above · Gunter

§ Orbital elements

Epoch: 2026-05-25T03:48:23.459040Z

Period
94.27 min
Inclination
42.9964°
Eccentricity
0.0001861
Mean motion
15.27592777 rev/d
Perigee alt
481.7 km
Apogee alt
484.3 km
Semi-major
6,861.1 km
B*
6.4643e-4
RAAN
96.9149°
Arg perigee
276.0937°
Mean anomaly
83.9702°
Rev number
2,481

§ Raw data

STARLINK-357011 67118U 25299S   26145.15860485  .00017576  00000+0  64643-3 0  99962 67118  42.9964  96.9149 0001861 276.0937  83.9702 15.27592777 24813

JSON: /api/v1/satellites/67118 · /tle

For live sub-satellite position, see the globe view (requires WebGL).

§ Visibility from observer

Set your observer location to see the next 7 days of passes ≥ 10°. The values pass through the URL so the page stays shareable.

No JS? Fill the form by hand. The geolocation button needs JavaScript.